Helliar — 2EPP5 — position and weather

sailwx.info

Track history (hours):
 
Tides and Currents Weather Stations Pressure Air Temp Water Temp Dewpoint Dewpoint Depression Visibility Wind Speed Wind Dir Waves Ship Positions

Helliar

Last reported at 2014-Nov-21 16:16 UTC. Time now 2014-Nov-21 20:37 UTC.
Position N 57°08' W 002°04'.

Length 122 m; draft 5.4 m.

Type: Cargo ship. MMSI: 235087119.

Date/timePositionNaut miles runAvg speedWind from/ knotsBaromVisibWave heightAir tempDewpointWater temp
2014-Nov-21 16:16N 57°08' W 002°04'0 0.5
2014-Nov-21 15:30N 57°09' W 002°05'0 0.0
2014-Nov-21 14:33N 57°09' W 002°05'0 0.0
2014-Nov-21 13:33N 57°09' W 002°05'0 0.0
2014-Nov-21 12:33N 57°09' W 002°05'0 0.0
2014-Nov-21 11:27N 57°09' W 002°05'0 0.0
2014-Nov-21 10:33N 57°09' W 002°05'0 0.0
2014-Nov-21 09:33N 57°09' W 002°05'0 0.0
2014-Nov-21 08:33N 57°09' W 002°05'0 0.1
2014-Nov-21 07:34N 57°09' W 002°05'1110.3
2014-Nov-21 06:29N 57°17' W 001°52'1212.5
2014-Nov-21 05:33N 57°27' W 001°40'1212.1
2014-Nov-21 04:33N 57°39' W 001°38'1212.4
2014-Nov-21 03:33N 57°51' W 001°36'78 3.3
2014-Nov-20 04:08N 59°05' W 002°27'813.9
2014-Nov-20 03:33N 59°00' W 002°41'9 9.2
2014-Nov-20 02:33N 58°60' W 002°58'5 4.8
2014-Nov-20 01:34N 59°00' W 002°49'7814.8
2014-Nov-19 20:17N 57°49' W 001°50'1014.3
2014-Nov-19 19:34N 57°39' W 001°44'1414.3
2014-Nov-19 18:34N 57°25' W 001°44'1914.3
2014-Nov-19 17:12N 57°09' W 002°05'0 0.6
2014-Nov-19 16:33N 57°09' W 002°05'0 0.0
2014-Nov-19 15:33N 57°09' W 002°05'0 0.0
2014-Nov-19 14:33N 57°09' W 002°05'0 0.0
2014-Nov-19 13:33N 57°09' W 002°05'0 0.0
2014-Nov-19 12:33N 57°09' W 002°05'0 0.0
2014-Nov-19 11:33N 57°09' W 002°05'0 0.0
2014-Nov-19 10:33N 57°09' W 002°05'0 0.0
2014-Nov-19 09:30N 57°09' W 002°05'0 0.0
2014-Nov-19 08:33N 57°09' W 002°05'0 0.0
2014-Nov-19 07:33N 57°09' W 002°05'0 0.0
2014-Nov-19 06:33N 57°09' W 002°05'0 0.0
2014-Nov-19 05:33N 57°09' W 002°05'0 0.0
2014-Nov-19 04:33N 57°09' W 002°05'0 0.0
2014-Nov-19 03:33N 57°09' W 002°05'0 0.0
2014-Nov-19 02:33N 57°09' W 002°05'0 0.0
2014-Nov-19 01:33N 57°09' W 002°05'0 0.0
2014-Nov-19 00:33N 57°09' W 002°05'0 0.0
2014-Nov-18 23:33N 57°09' W 002°05'0 0.0
2014-Nov-18 22:33N 57°09' W 002°05'0 0.0
2014-Nov-18 21:33N 57°09' W 002°05'0 0.0
2014-Nov-18 20:33N 57°09' W 002°05'0 0.0
2014-Nov-18 19:33N 57°09' W 002°05'0 0.0
2014-Nov-18 18:33N 57°09' W 002°05'0 0.0
2014-Nov-18 17:33N 57°09' W 002°05'0 0.0
2014-Nov-18 16:33N 57°09' W 002°05'0 0.0
2014-Nov-18 15:30N 57°09' W 002°05'0 0.0
2014-Nov-18 14:33N 57°09' W 002°05'0 0.0
2014-Nov-18 13:33N 57°09' W 002°05'0 0.0
2014-Nov-18 12:33N 57°09' W 002°05'0 0.0
2014-Nov-18 11:33N 57°09' W 002°05'0 0.0
2014-Nov-18 10:33N 57°09' W 002°05'0 0.0
2014-Nov-18 09:33N 57°09' W 002°05'0 0.0
2014-Nov-18 08:33N 57°09' W 002°05'10 8.5
2014-Nov-18 07:25N 57°14' W 001°50'1113.3
2014-Nov-18 06:33N 57°21' W 001°34'1312.9
2014-Nov-18 05:33N 57°29' W 001°15'1110.6
2014-Nov-18 04:33N 57°39' W 001°18'1312.7
2014-Nov-18 03:33N 57°50' W 001°30'6512.0
2014-Nov-17 22:06N 58°47' W 002°30'811.6
2014-Nov-17 21:26N 58°55' W 002°37'910.8
2014-Nov-17 20:33N 59°01' W 002°51'4 4.0
2014-Nov-17 19:31N 58°60' W 002°58'0 0.0
2014-Nov-17 18:31N 58°60' W 002°58'0 0.0
2014-Nov-17 17:31N 58°60' W 002°58'0 0.0
2014-Nov-17 16:31N 58°60' W 002°58'0 0.0
2014-Nov-17 14:31N 58°60' W 002°58'0 0.0
2014-Nov-17 13:31N 58°60' W 002°58'0 0.0
2014-Nov-17 12:31N 58°60' W 002°58'0 0.0
2014-Nov-17 11:31N 58°60' W 002°58'0 0.0
2014-Nov-17 10:31N 58°60' W 002°58'0 0.0
2014-Nov-17 09:31N 58°60' W 002°58'0 0.0
2014-Nov-17 08:31N 58°60' W 002°58'2 2.0
2014-Nov-17 07:33N 59°01' W 002°56'1010.2
2014-Nov-17 06:33N 59°09' W 002°43'  
2014-Nov-13 08:33N 59°09' W 002°43'1110.9
2014-Nov-13 07:33N 59°01' W 002°57'1 1.1
2014-Nov-13 06:33N 58°60' W 002°58'8 7.7
2014-Nov-13 05:33N 58°59' W 002°43'26 8.5
2014-Nov-13 02:33N 58°34' W 002°44'5614.1
2014-Nov-12 22:33N 57°46' W 001°48'1615.5
2014-Nov-12 21:33N 57°33' W 001°30'1010.0
2014-Nov-12 20:33N 57°23' W 001°29'9 9.1
2014-Nov-12 19:34N 57°16' W 001°37'1611.2
2014-Nov-12 18:06N 57°09' W 002°05'0 0.7
2014-Nov-12 17:32N 57°09' W 002°05'0 0.0
2014-Nov-12 16:32N 57°09' W 002°05'0 0.0
2014-Nov-12 15:32N 57°09' W 002°05'0 0.0
2014-Nov-12 14:32N 57°09' W 002°05'0 0.0
2014-Nov-12 13:32N 57°09' W 002°05'0 0.0
2014-Nov-12 12:32N 57°09' W 002°05'0 0.0
2014-Nov-12 11:32N 57°09' W 002°05'0 0.0
2014-Nov-12 10:29N 57°09' W 002°05'0 0.0
2014-Nov-12 09:32N 57°09' W 002°05'0 0.0
2014-Nov-12 08:29N 57°09' W 002°05'0 0.0
2014-Nov-12 06:32N 57°09' W 002°05'0 0.0
2014-Nov-12 05:32N 57°09' W 002°05'0 0.0
2014-Nov-12 04:32N 57°09' W 002°05'0 0.0
2014-Nov-12 03:32N 57°09' W 002°05'0 0.0
2014-Nov-12 02:32N 57°09' W 002°05'0 0.0
2014-Nov-12 00:05N 57°09' W 002°05'0 0.0
2014-Nov-11 22:32N 57°09' W 002°05'0 0.0
2014-Nov-11 21:26N 57°09' W 002°05'0 0.0
2014-Nov-11 20:32N 57°09' W 002°05'0 0.0
2014-Nov-11 19:29N 57°09' W 002°05'0 0.0
2014-Nov-11 18:32N 57°09' W 002°05'0 0.0
2014-Nov-11 17:33N 57°09' W 002°05'0 0.2
2014-Nov-11 16:33N 57°09' W 002°05'  
Track history (hours):
 
Tides and Currents Weather Stations Pressure Air Temp Water Temp Dewpoint Dewpoint Depression Visibility Wind Speed Wind Dir Waves Ship Positions

Helliar

Last reported at 2014-Nov-21 16:16 UTC. Time now 2014-Nov-21 20:37 UTC.
Position N 57°08' W 002°04'.

Length 122 m; draft 5.4 m.

Type: Cargo ship. MMSI: 235087119.

Date/timePositionNaut miles runAvg speedWind from/ knotsBaromVisibWave heightAir tempDewpointWater temp
2014-Nov-21 16:16N 57°08' W 002°04'0 0.5
2014-Nov-21 15:30N 57°09' W 002°05'0 0.0
2014-Nov-21 14:33N 57°09' W 002°05'0 0.0
2014-Nov-21 13:33N 57°09' W 002°05'0 0.0
2014-Nov-21 12:33N 57°09' W 002°05'0 0.0
2014-Nov-21 11:27N 57°09' W 002°05'0 0.0
2014-Nov-21 10:33N 57°09' W 002°05'0 0.0
2014-Nov-21 09:33N 57°09' W 002°05'0 0.0
2014-Nov-21 08:33N 57°09' W 002°05'0 0.1
2014-Nov-21 07:34N 57°09' W 002°05'1110.3
2014-Nov-21 06:29N 57°17' W 001°52'1212.5
2014-Nov-21 05:33N 57°27' W 001°40'1212.1
2014-Nov-21 04:33N 57°39' W 001°38'1212.4
2014-Nov-21 03:33N 57°51' W 001°36'78 3.3
2014-Nov-20 04:08N 59°05' W 002°27'813.9
2014-Nov-20 03:33N 59°00' W 002°41'9 9.2
2014-Nov-20 02:33N 58°60' W 002°58'5 4.8
2014-Nov-20 01:34N 59°00' W 002°49'7814.8
2014-Nov-19 20:17N 57°49' W 001°50'1014.3
2014-Nov-19 19:34N 57°39' W 001°44'1414.3
2014-Nov-19 18:34N 57°25' W 001°44'1914.3
2014-Nov-19 17:12N 57°09' W 002°05'0 0.6
2014-Nov-19 16:33N 57°09' W 002°05'0 0.0
2014-Nov-19 15:33N 57°09' W 002°05'0 0.0
2014-Nov-19 14:33N 57°09' W 002°05'0 0.0
2014-Nov-19 13:33N 57°09' W 002°05'0 0.0
2014-Nov-19 12:33N 57°09' W 002°05'0 0.0
2014-Nov-19 11:33N 57°09' W 002°05'0 0.0
2014-Nov-19 10:33N 57°09' W 002°05'0 0.0
2014-Nov-19 09:30N 57°09' W 002°05'0 0.0
2014-Nov-19 08:33N 57°09' W 002°05'0 0.0
2014-Nov-19 07:33N 57°09' W 002°05'0 0.0
2014-Nov-19 06:33N 57°09' W 002°05'0 0.0
2014-Nov-19 05:33N 57°09' W 002°05'0 0.0
2014-Nov-19 04:33N 57°09' W 002°05'0 0.0
2014-Nov-19 03:33N 57°09' W 002°05'0 0.0
2014-Nov-19 02:33N 57°09' W 002°05'0 0.0
2014-Nov-19 01:33N 57°09' W 002°05'0 0.0
2014-Nov-19 00:33N 57°09' W 002°05'0 0.0
2014-Nov-18 23:33N 57°09' W 002°05'0 0.0
2014-Nov-18 22:33N 57°09' W 002°05'0 0.0
2014-Nov-18 21:33N 57°09' W 002°05'0 0.0
2014-Nov-18 20:33N 57°09' W 002°05'0 0.0
2014-Nov-18 19:33N 57°09' W 002°05'0 0.0
2014-Nov-18 18:33N 57°09' W 002°05'0 0.0
2014-Nov-18 17:33N 57°09' W 002°05'0 0.0
2014-Nov-18 16:33N 57°09' W 002°05'0 0.0
2014-Nov-18 15:30N 57°09' W 002°05'0 0.0
2014-Nov-18 14:33N 57°09' W 002°05'0 0.0
2014-Nov-18 13:33N 57°09' W 002°05'0 0.0
2014-Nov-18 12:33N 57°09' W 002°05'0 0.0
2014-Nov-18 11:33N 57°09' W 002°05'0 0.0
2014-Nov-18 10:33N 57°09' W 002°05'0 0.0
2014-Nov-18 09:33N 57°09' W 002°05'0 0.0
2014-Nov-18 08:33N 57°09' W 002°05'10 8.5
2014-Nov-18 07:25N 57°14' W 001°50'1113.3
2014-Nov-18 06:33N 57°21' W 001°34'1312.9
2014-Nov-18 05:33N 57°29' W 001°15'1110.6
2014-Nov-18 04:33N 57°39' W 001°18'1312.7
2014-Nov-18 03:33N 57°50' W 001°30'6512.0
2014-Nov-17 22:06N 58°47' W 002°30'811.6
2014-Nov-17 21:26N 58°55' W 002°37'910.8
2014-Nov-17 20:33N 59°01' W 002°51'4 4.0
2014-Nov-17 19:31N 58°60' W 002°58'0 0.0
2014-Nov-17 18:31N 58°60' W 002°58'0 0.0
2014-Nov-17 17:31N 58°60' W 002°58'0 0.0
2014-Nov-17 16:31N 58°60' W 002°58'0 0.0
2014-Nov-17 14:31N 58°60' W 002°58'0 0.0
2014-Nov-17 13:31N 58°60' W 002°58'0 0.0
2014-Nov-17 12:31N 58°60' W 002°58'0 0.0
2014-Nov-17 11:31N 58°60' W 002°58'0 0.0
2014-Nov-17 10:31N 58°60' W 002°58'0 0.0
2014-Nov-17 09:31N 58°60' W 002°58'0 0.0
2014-Nov-17 08:31N 58°60' W 002°58'2 2.0
2014-Nov-17 07:33N 59°01' W 002°56'1010.2
2014-Nov-17 06:33N 59°09' W 002°43'  
2014-Nov-13 08:33N 59°09' W 002°43'1110.9
2014-Nov-13 07:33N 59°01' W 002°57'1 1.1
2014-Nov-13 06:33N 58°60' W 002°58'8 7.7
2014-Nov-13 05:33N 58°59' W 002°43'26 8.5
2014-Nov-13 02:33N 58°34' W 002°44'5614.1
2014-Nov-12 22:33N 57°46' W 001°48'1615.5
2014-Nov-12 21:33N 57°33' W 001°30'1010.0
2014-Nov-12 20:33N 57°23' W 001°29'9 9.1
2014-Nov-12 19:34N 57°16' W 001°37'1611.2
2014-Nov-12 18:06N 57°09' W 002°05'0 0.7
2014-Nov-12 17:32N 57°09' W 002°05'0 0.0
2014-Nov-12 16:32N 57°09' W 002°05'0 0.0
2014-Nov-12 15:32N 57°09' W 002°05'0 0.0
2014-Nov-12 14:32N 57°09' W 002°05'0 0.0
2014-Nov-12 13:32N 57°09' W 002°05'0 0.0
2014-Nov-12 12:32N 57°09' W 002°05'0 0.0
2014-Nov-12 11:32N 57°09' W 002°05'0 0.0
2014-Nov-12 10:29N 57°09' W 002°05'0 0.0
2014-Nov-12 09:32N 57°09' W 002°05'0 0.0
2014-Nov-12 08:29N 57°09' W 002°05'0 0.0
2014-Nov-12 06:32N 57°09' W 002°05'0 0.0
2014-Nov-12 05:32N 57°09' W 002°05'0 0.0
2014-Nov-12 04:32N 57°09' W 002°05'0 0.0
2014-Nov-12 03:32N 57°09' W 002°05'0 0.0
2014-Nov-12 02:32N 57°09' W 002°05'0 0.0
2014-Nov-12 00:05N 57°09' W 002°05'0 0.0
2014-Nov-11 22:32N 57°09' W 002°05'0 0.0
2014-Nov-11 21:26N 57°09' W 002°05'0 0.0
2014-Nov-11 20:32N 57°09' W 002°05'0 0.0
2014-Nov-11 19:29N 57°09' W 002°05'0 0.0
2014-Nov-11 18:32N 57°09' W 002°05'0 0.0
2014-Nov-11 17:33N 57°09' W 002°05'0 0.2
2014-Nov-11 16:33N 57°09' W 002°05'  

Dump ship's entire track history